H1 CPF 2 NER 2025 10 25 9 298 01 glonass146 H2 2216101 9146 54377 2025 10 25 0 0 0 2025 10 28 23 45 0 900 1 1 0 0 0 1 H9 10 0 60973 0.00000 0 10372012.827 8143425.072 -21819479.759 10 0 60973 900.00000 0 7708917.522 8817418.827 -22648039.082 10 0 60973 1800.00000 0 5031764.743 9708652.949 -23036215.881 10 0 60973 2700.00000 0 2408690.333 10801040.859 -22976608.104 10 0 60973 3600.00000 0 -95909.666 12066749.410 -22470522.067 10 0 60973 4500.00000 0 -2423827.449 13467275.722 -21527935.687 10 0 60973 5400.00000 0 -4525223.257 14954988.662 -20167293.918 10 0 60973 6300.00000 0 -6360447.362 16475070.096 -18415141.035 10 0 60973 7200.00000 0 -7901430.161 17967774.436 -16305597.469 10 0 60973 8100.00000 0 -9132584.483 19370911.841 -13879691.653 10 0 60973 9000.00000 0 -10051184.597 20622451.158 -11184560.031 10 0 60973 9900.00000 0 -10667208.191 21663133.809 -8272530.781 10 0 60973 10800.00000 0 -11002649.919 22438989.385 -5200108.978 10 0 60973 11700.00000 0 -11090337.074 22903647.874 -2026882.734 10 0 60973 12600.00000 0 -10972298.543 23020351.931 1185628.614 10 0 60973 13500.00000 0 -10697756.737 22763585.103 4375162.176 10 0 60973 14400.00000 0 -10320827.737 22120247.962 7479912.296 10 0 60973 15300.00000 0 -9898026.911 21090332.861 10439721.492 10 0 60973 16200.00000 0 -9485685.182 19687068.891 13197238.918 10 0 60973 17100.00000 0 -9137384.725 17936530.531 15699024.468 10 0 60973 18000.00000 0 -8901521.859 15876725.694 17896577.661 10 0 60973 18900.00000 0 -8819099.544 13556200.270 19747272.109 10 0 60973 19800.00000 0 -8921842.268 11032216.186 21215178.082 10 0 60973 20700.00000 0 -9230712.721 8368577.495 22271757.799 10 0 60973 21600.00000 0 -9754893.008 5633193.452 22896420.407 10 0 60973 22500.00000 0 -10491273.969 2895478.355 23076926.057 10 0 60973 23400.00000 0 -11424475.159 223694.762 22809631.114 10 0 60973 24300.00000 0 -12527396.078 -2317650.872 22099569.335 10 0 60973 25200.00000 0 -13762277.154 -4670252.989 20960366.652 10 0 60973 26100.00000 0 -15082227.628 -6784191.270 19413990.203 10 0 60973 27000.00000 0 -16433157.804 -8619764.141 17490335.265 10 0 60973 27900.00000 0 -17756035.863 -10148895.289 15226656.835 10 0 60973 28800.00000 0 -18989375.298 -11356054.495 12666855.680 10 0 60973 29700.00000 0 -20071848.807 -12238654.302 9860631.765 10 0 60973 30600.00000 0 -20944918.461 -12806905.811 6862520.760 10 0 60973 31500.00000 0 -21555370.752 -13083139.903 3730832.184 10 0 60973 32400.00000 0 -21857648.569 -13100622.777 526509.968 10 0 60973 33300.00000 0 -21815880.378 -12901916.428 -2688061.765 10 0 60973 34200.00000 0 -21405519.371 -12536854.142 -5850283.503 10 0 60973 35100.00000 0 -20614521.969 -12060217.923 -8898570.640 10 0 60973 36000.00000 0 -19444014.755 -11529217.569 -11773563.986 10 0 60973 36900.00000 0 -17908420.585 -11000879.515 -14419295.609 10 0 60973 37800.00000 0 -16035037.927 -10529457.429 -16784286.228 10 0 60973 38700.00000 0 -13863090.760 -10163975.392 -18822552.005 10 0 60973 39600.00000 0 -11442288.918 -9946008.556 -20494500.656 10 0 60973 40500.00000 0 -8830959.369 -9907795.677 -21767699.481 10 0 60973 41400.00000 0 -6093826.874 -10070763.483 -22617500.659 10 0 60973 42300.00000 0 -3299536.942 -10444525.011 -23027512.331 10 0 60973 43200.00000 0 -518024.427 -11026393.791 -22989907.132 10 0 60973 44100.00000 0 2182162.864 -11801433.729 -22505563.167 10 0 60973 45000.00000 0 4736474.704 -12743041.999 -21584035.611 10 0 60973 45900.00000 0 7086795.460 -13814039.778 -20243360.359 10 0 60973 46800.00000 0 9183607.512 -14968224.494 -18509694.252 10 0 60973 47700.00000 0 10987792.625 -16152317.950 -16416799.377 10 0 60973 48600.00000 0 12471998.090 -17308228.318 -14005381.817 10 0 60973 49500.00000 0 13621512.708 -18375530.930 -11322297.836 10 0 60973 50400.00000 0 14434618.041 -19294063.777 -8419642.965 10 0 60973 51300.00000 0 14922402.242 -20006528.879 -5353741.609 10 0 60973 52200.00000 0 15108046.079 -20460990.535 -2184056.618 10 0 60973 53100.00000 0 15025612.663 -20613165.767 1027960.166 10 0 60973 54000.00000 0 14718392.946 -20428410.983 4220054.332 10 0 60973 54900.00000 0 14236877.443 -19883321.569 7330369.587 10 0 60973 55800.00000 0 13636440.064 -18966877.231 10298639.745 10 0 60973 56700.00000 0 12974831.720 -17681084.827 13067349.356 10 0 60973 57600.00000 0 12309589.162 -16041091.237 15582841.042 10 0 60973 58500.00000 0 11695467.835 -14074760.801 17796348.632 10 0 60973 59400.00000 0 11182006.402 -11821733.902 19664936.767 10 0 60973 60300.00000 0 10811324.999 -9332004.677 21152329.428 10 0 60973 61200.00000 0 10616249.572 -6664075.599 22229611.860 10 0 60973 62100.00000 0 10618841.046 -3882764.069 22875792.760 10 0 60973 63000.00000 0 10829391.431 -1056750.482 23078215.980 10 0 60973 63900.00000 0 11245929.568 1744032.000 22832813.686 10 0 60973 64800.00000 0 11854258.258 4451059.081 22144195.618 10 0 60973 65700.00000 0 12628522.356 6999819.114 21025571.994 10 0 60973 66600.00000 0 13532285.361 9332251.750 19498510.529 10 0 60973 67500.00000 0 14520070.609 11398920.712 17592531.089 10 0 60973 68400.00000 0 15539303.536 13160830.517 15344544.579 10 0 60973 69300.00000 0 16532574.190 14590811.440 12798145.749 10 0 60973 70200.00000 0 17440125.279 15674414.744 10002772.678 10 0 60973 71100.00000 0 18202460.893 16410280.602 7012748.532 10 0 60973 72000.00000 0 18762965.404 16809963.162 3886224.010 10 0 60973 72900.00000 0 19070421.005 16897220.285 684041.174 10 0 60973 73800.00000 0 19081316.331 16706798.325 -2531458.635 10 0 60973 74700.00000 0 18761847.031 16282763.845 -5697658.608 10 0 60973 75600.00000 0 18089522.117 15676453.739 -8752897.002 10 0 60973 76500.00000 0 17054306.802 14944131.706 -11637679.144 10 0 60973 77400.00000 0 15659252.249 14144451.556 -14295845.936 10 0 60973 78300.00000 0 13920584.671 13335836.009 -16675675.056 10 0 60973 79200.00000 0 11867249.285 12573883.017 -18730892.615 10 0 60973 80100.00000 0 9539927.927 11908910.277 -20421575.089 10 0 60973 81000.00000 0 6989571.406 11383742.230 -21714923.950 10 0 60973 81900.00000 0 4275508.036 11031833.195 -22585898.246 10 0 60973 82800.00000 0 1463207.512 10875805.601 -23017693.429 10 0 60973 83700.00000 0 -1378206.583 10926464.385 -23002057.997 10 0 60973 84600.00000 0 -4178592.195 11182328.257 -22539442.732 10 0 60973 85500.00000 0 -6869462.817 11629696.607 -21638980.598 10 0 60974 0.00000 0 -9386589.428 12243248.191 -20318298.697 10 0 60974 900.00000 0 -11672424.495 12987145.842 -18603165.873 10 0 60974 1800.00000 0 -13678245.219 13816599.091 -16526985.215 10 0 60974 2700.00000 0 -15365932.890 14679819.519 -14130139.292 10 0 60974 3600.00000 0 -16709312.600 15520285.409 -11459202.671 10 0 60974 4500.00000 0 -17695000.650 16279220.567 -8566036.432 10 0 60974 5400.00000 0 -18322725.884 16898182.965 -5506782.262 10 0 60974 6300.00000 0 -18605113.277 17321654.395 -2340775.510 10 0 60974 7200.00000 0 -18566940.392 17499522.321 870601.876 10 0 60974 8100.00000 0 -18243899.220 17389349.688 4065106.505 10 0 60974 9000.00000 0 -17680916.386 16958337.316 7180834.122 10 0 60974 9900.00000 0 -16930102.944 16184896.330 10157412.610 10 0 60974 10800.00000 0 -16048420.277 15059764.369 12937164.772 10 0 60974 11700.00000 0 -15095160.222 13586618.204 15466218.843 10 0 60974 12600.00000 0 -14129345.114 11782156.361 17695545.814 10 0 60974 13500.00000 0 -13207156.571 9675647.154 19581904.115 10 0 60974 14400.00000 0 -12379500.519 7307959.661 21088674.019 10 0 60974 15300.00000 0 -11689810.234 4730116.410 22186566.143 10 0 60974 16200.00000 0 -11172179.224 2001426.275 22854190.767 10 0 60974 17100.00000 0 -10849902.170 -812726.668 23078477.118 10 0 60974 18000.00000 0 -10734485.255 -3643348.248 22854934.411 10 0 60974 18900.00000 0 -10825167.857 -6420452.590 22187749.168 10 0 60974 19800.00000 0 -11108976.368 -9075726.546 21089716.200 10 0 60974 20700.00000 0 -11561308.824 -11545130.557 19582003.600 10 0 60974 21600.00000 0 -12147026.808 -13771328.621 17693755.117 10 0 60974 22500.00000 0 -12822009.711 -15705846.630 15461536.366 10 0 60974 23400.00000 0 -13535106.754 -17310869.172 12928634.422 10 0 60974 24300.00000 0 -14230405.038 -18560599.610 10144223.408 10 0 60974 25200.00000 0 -14849718.074 -19442126.274 7162411.568 10 0 60974 26100.00000 0 -15335189.351 -19955758.168 4041188.068 10 0 60974 27000.00000 0 -15631900.132 -20114815.946 841290.166 10 0 60974 27900.00000 0 -15690370.003 -19944887.093 -2374986.688 10 0 60974 28800.00000 0 -15468842.913 -19482577.065 -5545011.656 10 0 60974 29700.00000 0 -14935260.369 -18773809.855 -8607049.249 10 0 60974 30600.00000 0 -14068836.710 -17871750.714 -11501472.734 10 0 60974 31500.00000 0 -12861168.373 -16834440.043 -14171935.246 10 0 60974 32400.00000 0 -11316829.069 -15722239.688 -16566474.714 10 0 60974 33300.00000 0 -9453424.765 -14595200.701 -18638530.277 10 0 60974 34200.00000 0 -7301105.497 -13510464.763 -20347849.915 10 0 60974 35100.00000 0 -4901554.106 -12519809.519 -21661271.578 10 0 60974 36000.00000 0 -2306494.046 -11667441.618 -22553362.956 10 0 60974 36900.00000 0 424221.361 -10988130.234 -23006908.017 10 0 60974 37800.00000 0 3224858.536 -10505759.051 -23013231.737 10 0 60974 38700.00000 0 6026298.493 -10232356.672 -22572357.637 10 0 60974 39600.00000 0 8758673.335 -10167645.044 -21692996.019 10 0 60974 40500.00000 0 11354035.253 -10299123.543 -20392364.008 10 0 60974 41400.00000 0 13748947.851 -10602683.876 -18695841.606 10 0 60974 42300.00000 0 15886893.011 -11043728.685 -16636470.990 10 0 60974 43200.00000 0 17720394.490 -11578745.798 -14254309.127 10 0 60974 44100.00000 0 19212771.284 -12157271.054 -11595646.440 10 0 60974 45000.00000 0 20339449.241 -12724156.542 -8712106.755 10 0 60974 45900.00000 0 21088777.867 -13222048.407 -5659645.944 10 0 60974 46800.00000 0 21462319.763 -13593969.737 -2497468.518 10 0 60974 47700.00000 0 21474602.090 -13785899.738 713116.941 10 0 60974 48600.00000 0 21152341.731 -13749240.605 3909881.560 10 0 60974 49500.00000 0 20533177.696 -13443068.284 7030876.513 10 0 60974 50400.00000 0 19663964.627 -12836072.334 10015626.944 10 0 60974 51300.00000 0 18598699.470 -11908103.125 12806296.778 10 0 60974 52200.00000 0 17396168.377 -10651260.910 15348802.366 10 0 60974 53100.00000 0 16117412.433 -9070480.371 17593853.947 10 0 60974 54000.00000 0 14823118.068 -7183585.080 19497905.398 10 0 60974 54900.00000 0 13571041.044 -5020808.253 21023994.517 10 0 60974 55800.00000 0 12413571.350 -2623798.151 22142458.106 10 0 60974 56700.00000 0 11395540.450 -44147.728 22831508.445 10 0 60974 57600.00000 0 10552362.282 2658492.248 23077660.173 10 0 60974 58500.00000 0 9908585.611 5418640.122 22875999.228 10 0 60974 59400.00000 0 9476918.405 8167459.651 22230288.250 10 0 60974 60300.00000 0 9257765.361 10835384.482 21152905.669 10 0 60974 61200.00000 0 9239298.492 13354783.037 19664618.713 10 0 60974 62100.00000 0 9398058.437 15662553.942 17794193.526 10 0 60974 63000.00000 0 9700061.951 17702544.515 15577848.737 10 0 60974 63900.00000 0 10102369.572 19427691.604 13058561.856 10 0 60974 64800.00000 0 10555047.833 20801795.209 10285241.004 10 0 60974 65700.00000 0 11003443.364 21800850.331 7311777.289 10 0 60974 66600.00000 0 11390672.521 22413880.710 4195996.009 10 0 60974 67500.00000 0 11660220.575 22643239.076 998527.161 10 0 60974 68400.00000 0 11758539.410 22504361.047 -2218382.187 10 0 60974 69300.00000 0 11637532.328 22024983.098 -5392089.650 10 0 60974 70200.00000 0 11256819.160 21243857.958 -8460788.392 10 0 60974 71100.00000 0 10585684.118 20209022.348 -11364721.895 10 0 60974 72000.00000 0 9604622.379 18975691.121 -14047357.635 10 0 60974 72900.00000 0 8306418.583 17603867.840 -16456495.701 10 0 60974 73800.00000 0 6696710.531 16155773.694 -18545289.982 10 0 60974 74700.00000 0 4794013.430 14693204.230 -20273161.496 10 0 60974 75600.00000 0 2629203.029 13274925.966 -21606586.054 10 0 60974 76500.00000 0 244478.904 11954222.865 -22519741.197 10 0 60974 77400.00000 0 -2308148.863 10776695.769 -22995000.453 10 0 60974 78300.00000 0 -4968786.523 9778406.756 -23023266.088 10 0 60974 79200.00000 0 -7671916.771 8984445.352 -22604134.899 10 0 60974 80100.00000 0 -10348898.129 8407975.513 -21745894.715 10 0 60974 81000.00000 0 -12930599.967 8049801.833 -20465352.621 10 0 60974 81900.00000 0 -15350064.079 7898471.517 -18787498.931 10 0 60974 82800.00000 0 -17545082.883 7930906.237 -16745014.004 10 0 60974 83700.00000 0 -19460587.927 8113535.812 -14377627.849 10 0 60974 84600.00000 0 -21050750.469 8403884.779 -11731345.096 10 0 60974 85500.00000 0 -22280707.837 8752544.091 -8857550.460 10 0 60975 0.00000 0 -23127844.883 9105444.175 -5812012.246 10 0 60975 900.00000 0 -23582578.776 9406333.327 -2653801.424 10 0 60975 1800.00000 0 -23648614.548 9599356.260 555848.790 10 0 60975 2700.00000 0 -23342663.375 9631624.692 3754726.415 10 0 60975 3600.00000 0 -22693635.127 9455671.094 6880840.544 10 0 60975 4500.00000 0 -21741340.230 9031682.412 9873616.165 10 0 60975 5400.00000 0 -20534755.570 8329419.498 12675060.991 10 0 60975 6300.00000 0 -19129927.245 7329741.219 15230882.182 10 0 60975 7200.00000 0 -17587597.852 6025668.587 17491531.878 10 0 60975 8100.00000 0 -15970657.297 4422943.390 19413161.928 10 0 60975 9000.00000 0 -14341523.187 2540056.634 20958469.982 10 0 60975 9900.00000 0 -12759559.746 407744.098 22097421.076 10 0 60975 10800.00000 0 -11278642.385 -1932031.819 22807831.185 10 0 60975 11700.00000 0 -9944969.100 -4427573.527 23075801.675 10 0 60975 12600.00000 0 -8795209.625 -7019352.927 22895996.115 10 0 60975 13500.00000 0 -7855069.392 -9642252.137 22271753.748 10 0 60975 14400.00000 0 -7138328.259 -12228048.926 21215036.694 10 0 60975 15300.00000 0 -6646394.364 -14708044.999 19746210.959 10 0 60975 16200.00000 0 -6368392.088 -17015728.888 17893664.330 10 0 60975 17100.00000 0 -6281780.834 -19089363.274 15693267.300 10 0 60975 18000.00000 0 -6353478.981 -20874389.021 13187686.320 10 0 60975 18900.00000 0 -6541445.975 -22325545.397 10425561.690 10 0 60975 19800.00000 0 -6796655.877 -23408617.323 7460565.299 10 0 60975 20700.00000 0 -7065378.738 -24101735.748 4350356.266 10 0 60975 21600.00000 0 -7291672.740 -24396175.924 1155454.849 10 0 60975 22500.00000 0 -7419980.574 -24296619.445 -2061942.917 10 0 60975 23400.00000 0 -7397718.822 -23820868.697 -5239185.881 10 0 60975 24300.00000 0 -7177749.033 -22999025.758 -8314398.764 10 0 60975 25200.00000 0 -6720624.216 -21872170.687 -11227698.263 10 0 60975 26100.00000 0 -5996513.913 -20490595.626 -13922369.236 10 0 60975 27000.00000 0 -4986724.929 -18911670.039 -16345976.956 10 0 60975 27900.00000 0 -3684752.110 -17197428.068 -18451392.959 10 0 60975 28800.00000 0 -2096813.822 -15411980.586 -20197713.981 10 0 60975 29700.00000 0 -241848.775 -13618861.601 -21551056.040 10 0 60975 30600.00000 0 1849026.206 -11878420.994 -22485208.479 10 0 60975 31500.00000 0 4133575.026 -10245373.140 -22982135.858 10 0 60975 32400.00000 0 6559973.686 -8766603.827 -23032318.737 10 0 60975 33300.00000 0 9068750.313 -7479326.491 -22634927.700 10 0 60975 34200.00000 0 11595053.073 -6409663.785 -21797828.174 10 0 60975 35100.00000 0 14071151.692 -5571712.241 -20537416.846 10 0 60975 36000.00000 0 16429068.799 -4967127.415 -18878293.562 10 0 60975 36900.00000 0 18603232.067 -4585244.992 -16852775.680 10 0 60975 37800.00000 0 20533037.416 -4403730.929 -14500264.634 10 0 60975 38700.00000 0 22165217.429 -4389731.631 -11866477.211 10 0 60975 39600.00000 0 23455917.190 -4501474.380 -9002556.522 10 0 60975 40500.00000 0 24372392.069 -4690249.558 -5964079.849 10 0 60975 41400.00000 0 24894257.647 -4902690.322 -2809982.483 10 0 60975 42300.00000 0 25014240.605 -5083253.162 398581.734 10 0 60975 43200.00000 0 24738400.147 -5176794.454 3599421.309 10 0 60975 44100.00000 0 24085811.495 -5131134.209 6730506.825 10 0 60975 45000.00000 0 23087725.285 -4899498.907 9731166.546 10 0 60975 45900.00000 0 21786238.426 -4442740.361 12543255.148 10 0 60975 46800.00000 0 20232532.105 -3731236.993 15112273.443 10 0 60975 47700.00000 0 18484750.493 -2746397.127 17388417.930 10 0 60975 48600.00000 0 16605608.410 -1481700.467 19327540.487 10 0 60975 49500.00000 0 14659827.262 56766.995 20892000.245 10 0 60975 50400.00000 0 12711505.583 1850308.393 22051391.675 10 0 60975 51300.00000 0 10821533.044 3868143.588 22783135.248 10 0 60975 52200.00000 0 9045154.986 6068448.932 23072919.423 10 0 60975 53100.00000 0 7429788.353 8399867.836 22914985.338 10 0 60975 54000.00000 0 6013179.513 10803431.340 22312248.360 10 0 60975 54900.00000 0 4821980.513 13214810.669 21276253.398 10 0 60975 55800.00000 0 3870803.035 15566809.648 19826963.961 10 0 60975 56700.00000 0 3161789.636 17791994.495 17992387.844 10 0 60975 57600.00000 0 2684720.347 19825352.240 15808045.483 10 0 60975 58500.00000 0 2417650.329 21606867.169 13316290.096 10 0 60975 59400.00000 0 2328051.867 23083907.565 10565491.783 10 0 60975 60300.00000 0 2374412.577 24213322.366 7609100.682 10 0 60975 61200.00000 0 2508222.072 24963159.071 4504607.077 10 0 60975 62100.00000 0 2676262.524 25313929.907 1312418.755 10 0 60975 63000.00000 0 2823105.301 25259372.156 -1905322.032 10 0 60975 63900.00000 0 2893706.656 24806669.955 -5085958.066 10 0 60975 64800.00000 0 2835991.053 23976127.808 -8167548.212 10 0 60975 65700.00000 0 2603310.987 22800309.530 -11090084.797 10 0 60975 66600.00000 0 2156677.479 21322679.158 -13796672.252 10 0 60975 67500.00000 0 1466665.220 19595801.703 -16234642.981 10 0 60975 68400.00000 0 514910.448 17679180.243 -18356587.873 10 0 60975 69300.00000 0 -704862.853 15636821.219 -20121280.862 10 0 60975 70200.00000 0 -2186332.532 13534630.981 -21494479.436 10 0 60975 71100.00000 0 -3910605.744 11437753.380 -22449585.800 10 0 60975 72000.00000 0 -5846783.482 9407960.225 -22968156.381 10 0 60975 72900.00000 0 -7953038.718 7501203.626 -23040250.615 10 0 60975 73800.00000 0 -10178163.164 5765431.917 -22664613.163 10 0 60975 74700.00000 0 -12463518.036 4238759.349 -21848686.978 10 0 60975 75600.00000 0 -14745307.570 2948064.507 -20608457.888 10 0 60975 76500.00000 0 -16957080.665 1908074.183 -18968134.415 10 0 60975 77400.00000 0 -19032356.699 1120969.031 -16959669.666 10 0 60975 78300.00000 0 -20907266.545 576525.421 -14622134.918 10 0 60975 79200.00000 0 -22523099.294 252785.541 -12000957.260 10 0 60975 80100.00000 0 -23828649.147 117225.847 -9147036.130 10 0 60975 81000.00000 0 -24782265.347 128373.212 -6115755.852 10 0 60975 81900.00000 0 -25353520.312 237799.596 -2965913.161 10 0 60975 82800.00000 0 -25524427.103 392410.368 241419.639 10 0 60975 83700.00000 0 -25290156.001 536929.270 3444074.054 10 0 60975 84600.00000 0 -24659220.855 616474.953 6579984.757 10 0 60975 85500.00000 0 -23653127.822 579120.280 9588385.948 10 0 60976 0.00000 0 -22305501.559 378326.494 12410981.710 10 0 60976 900.00000 0 -20660724.599 -24850.566 14993069.672 10 0 60976 1800.00000 0 -18772148.414 -659874.988 17284592.972 10 0 60976 2700.00000 0 -16699947.944 -1545246.118 19241105.856 10 0 60976 3600.00000 0 -14508710.161 -2687477.597 20824630.988 10 0 60976 4500.00000 0 -12264855.676 -4080584.063 22004393.976 10 0 60976 5400.00000 0 -10033999.984 -5706098.427 22757421.068 10 0 60976 6300.00000 0 -7878363.231 -7533620.756 23068988.663 10 0 60976 7200.00000 0 -5854335.473 -9521877.754 22932915.895 10 0 60976 8100.00000 0 -4010297.996 -11620250.666 22351694.256 10 0 60976 9000.00000 0 -2384790.842 -13770709.913 21336451.069 10 0 60976 9900.00000 0 -1005102.566 -15910077.526 19906746.609 10 0 60976 10800.00000 0 113659.151 -17972524.518 18090207.615 10 0 60976 11700.00000 0 968977.246 -19892199.995 15922003.096 10 0 60976 12600.00000 0 1570798.179 -21605882.687 13444171.384 10 0 60976 13500.00000 0 1940873.382 -23055544.035 10704810.481 10 0 60976 14400.00000 0 2111597.027 -24190715.058 7757146.658 10 0 60976 15300.00000 0 2124389.424 -24970556.898 4658499.089 10 0 60976 16200.00000 0 2027694.858 -25365547.066 1469160.688 10 0 60976 17100.00000 0 1874679.388 -25358709.369 -1748782.563 10 0 60976 18000.00000 0 1720727.227 -24946334.701 -4932669.935 10 0 60976 18900.00000 0 1620843.165 -24138161.562 -8020497.045 10 0 60976 19800.00000 0 1627072.670 -22957008.175 -10952134.481 10 0 60976 20700.00000 0 1786050.630 -21437871.586 -13670508.887 10 0 60976 21600.00000 0 2136784.077 -19626531.904 -16122722.397 10 0 60976 22500.00000 0 2708764.133 -17577720.858 -18261087.734 10 0 60976 23400.00000 0 3520488.125 -15352932.339 -20044058.319 10 0 60976 24300.00000 0 4578455.102 -13017967.480 -21437035.124 10 0 60976 25200.00000 0 5876677.683 -10640317.717 -22413034.882 10 0 60976 26100.00000 0 7396731.097 -8286495.699 -22953207.175 10 0 60976 27000.00000 0 9108337.487 -6019425.551 -23047191.184 10 0 60976 27900.00000 0 10970461.016 -3896000.968 -22693306.109 10 0 60976 28800.00000 0 12932867.885 -1964912.146 -21898572.516 10 0 60976 29700.00000 0 14938085.977 -264830.808 -20678565.080 10 0 60976 30600.00000 0 16923682.343 1176972.671 -19057100.353 10 0 60976 31500.00000 0 18824763.516 2345524.295 -17065766.182 10 0 60976 32400.00000 0 20576594.538 3238518.395 -14743302.298 10 0 60976 33300.00000 0 22117227.753 3866153.075 -12134844.298 10 0 60976 34200.00000 0 23390032.001 4250438.098 -9291045.759 10 0 60976 35100.00000 0 24346017.131 4424006.074 -6267095.466 10 0 60976 36000.00000 0 24945857.238 4428478.427 -3121648.681 10 0 60976 36900.00000 0 25161528.588 4312456.050 84306.997 10 0 60976 37800.00000 0 24977494.211 4129220.133 3288629.390 10 0 60976 38700.00000 0 24391386.024 3934240.527 6429220.606 10 0 60976 39600.00000 0 23414156.183 3782596.980 9445224.046 10 0 60976 40500.00000 0 22069691.394 3726422.025 12278196.778 10 0 60976 41400.00000 0 20393906.131 3812473.308 14873235.065 10 0 60976 42300.00000 0 18433352.260 4079937.640 17180031.748 10 0 60976 43200.00000 0 16243402.454 4558559.381 19153845.642 10 0 60976 44100.00000 0 13886082.311 5267172.251 20756364.801 10 0 60976 45000.00000 0 11427640.482 6212696.913 21956447.445 10 0 60976 45900.00000 0 8935956.865 7389647.458 22730726.680 10 0 60976 46800.00000 0 6477895.473 8780168.822 23064067.518 10 0 60976 47700.00000 0 4116711.032 10354605.280 22949867.306 10 0 60976 48600.00000 0 1909616.099 12072578.055 22390193.405 10 0 60976 49500.00000 0 -94390.882 13884528.990 21395754.826 10 0 60976 50400.00000 0 -1856346.783 15733667.551 19985707.409 10 0 60976 51300.00000 0 -3348718.728 17558241.419 18187295.213 10 0 60976 52200.00000 0 -4556314.782 19294036.936 16035333.818 10 0 60976 53100.00000 0 -5476672.363 20877005.512 13571544.369 10 0 60976 54000.00000 0 -6119908.194 22245906.174 10843750.247 10 0 60976 54900.00000 0 -6508036.193 23344853.178 7904951.181 10 0 60976 55800.00000 0 -6673782.292 24125660.904 4812292.457 10 0 60976 56700.00000 0 -6658946.655 24549886.412 1625949.303 10 0 60976 57600.00000 0 -6512383.241 24590482.433 -1592051.383 10 0 60976 58500.00000 0 -6287683.254 24232989.877 -4779048.119 10 0 60976 59400.00000 0 -6040661.839 23476218.467 -7872975.919 10 0 60976 60300.00000 0 -5826756.008 22332385.940 -10813586.113 10 0 60976 61200.00000 0 -5698445.597 20826709.381 -13543629.829 10 0 60976 62100.00000 0 -5702808.016 18996465.697 -16009980.945 10 0 60976 63000.00000 0 -5879311.669 16889560.895 -18164675.792 10 0 60976 63900.00000 0 -6257942.508 14562668.612 -19965848.779 10 0 60976 64800.00000 0 -6857743.673 12079016.499 -21378545.632 10 0 60976 65700.00000 0 -7685830.371 9505913.621 -22375398.635 10 0 60976 66600.00000 0 -8736921.713 6912122.634 -22937151.298 10 0 60976 67500.00000 0 -9993409.220 4365186.522 -23053023.055 10 0 60976 68400.00000 0 -11425958.989 1928821.073 -22720907.848 10 0 60976 69300.00000 0 -12994622.015 -339518.912 -21947403.701 10 0 60976 70200.00000 0 -14650405.938 -2390799.470 -20747673.619 10 0 60976 71100.00000 0 -16337242.244 -4186204.954 -19145141.260 10 0 60976 72000.00000 0 -17994266.530 -5698500.051 -17171027.916 10 0 60976 72900.00000 0 -19558316.502 -6912901.613 -14863740.131 10 0 60976 73800.00000 0 -20966543.400 -7827426.077 -12268120.085 10 0 60976 74700.00000 0 -22159027.853 -8452700.056 -9434573.337 10 0 60976 75600.00000 0 -23081291.071 -8811244.045 -6418090.812 10 0 60976 76500.00000 0 -23686596.668 -8936261.049 -3277183.835 10 0 60976 77400.00000 0 -23937947.078 -8869982.450 -72752.733 10 0 60976 78300.00000 0 -23809691.339 -8661641.787 3133089.296 10 0 60976 79200.00000 0 -23288677.134 -8365162.497 6278214.536 10 0 60976 80100.00000 0 -22374898.946 -8036657.442 9301678.385 10 0 60976 81000.00000 0 -21081615.106 -7731845.762 12144893.447 10 0 60976 81900.00000 0 -19434928.546 -7503495.864 14752757.855 10 0 60976 82800.00000 0 -17472848.197 -7399002.177 17074716.467 10 0 60976 83700.00000 0 -15243869.473 -7458197.622 19065734.997 10 0 60976 84600.00000 0 -12805131.976 -7711493.893 20687168.878 10 0 60976 85500.00000 0 -10220230.001 -8178428.008 21907510.528 99